FW5763 Weather Reports


Display with metric or nautical units.
time (UTC)temp
F
wind
direction
speed
MPH
gust
MPH
rain 1hr
in
rain 24hr
in
rain mn
in
humidity
%
barometer
mb
20260904230516 77 215 5.0 11.0 0.00 0.06 0.05 46 1013.7
20260904225515 76 210 5.0 9.0 0.00 0.06 0.05 47 1013.9
20260904224516 75 205 6.0 9.0 0.00 0.06 0.05 49 1013.9
20260904223535 75 193 6.0 10.0 0.00 0.06 0.05 50 1014.1
20260904222515 75 188 3.0 7.0 0.00 0.06 0.05 51 1014.2
20260904221515 75 214 3.0 7.0 0.00 0.06 0.05 51 1014.4
20260904220515 75 215 4.0 11.0 0.00 0.06 0.05 51 1014.5
20260904215515 74 161 5.0 9.0 0.00 0.06 0.05 52 1014.5
20260904214535 73 181 5.0 9.0 0.00 0.06 0.05 52 1014.6
20260904213515 73 218 7.0 9.0 0.00 0.06 0.05 53 1014.6
20260904212515 73 209 5.0 8.0 0.00 0.06 0.05 55 1014.6
20260904211535 72 181 3.0 10.0 0.00 0.06 0.05 58 1014.7
20260904210515 71 207 3.0 9.0 0.00 0.06 0.05 60 1014.7
20260904205515 71 146 3.0 9.0 0.00 0.06 0.05 62 1014.8
20260904204515 70 195 4.0 10.0 0.00 0.06 0.05 65 1014.9
20260904203515 70 193 5.0 9.0 0.00 0.06 0.05 66 1015.0
20260904202515 71 222 3.0 9.0 0.00 0.06 0.05 67 1014.8
20260904201515 70 149 6.0 11.0 0.00 0.06 0.05 70 1014.8
20260904200555 69 189 7.0 11.0 0.00 0.06 0.05 71 1014.8
20260904195535 69 195 8.0 11.0 0.00 0.06 0.05 71 1014.8
20260904194515 70 136 4.0 7.0 0.00 0.06 0.05 70 1014.9
20260904193555 69 208 4.0 8.0 0.00 0.06 0.05 72 1015.0
20260904192515 69 150 5.0 7.0 0.00 0.06 0.05 72 1015.0
20260904191555 70 221 4.0 9.0 0.00 0.06 0.05 72 1015.0
20260904190515 70 198 4.0 6.0 0.00 0.06 0.05 72 1015.0
20260904185515 69 201 4.0 8.0 0.00 0.06 0.05 68 1015.2
20260904184535 69 192 2.0 4.0 0.00 0.06 0.05 69 1015.2
20260904183515 68 228 3.0 4.0 0.00 0.06 0.05 73 1015.3
20260904182515 67 246 3.0 6.0 0.00 0.06 0.05 74 1015.4
20260904181515 67 216 2.0 4.0 0.00 0.06 0.05 77 1015.4
20260904180535 66 207 2.0 3.0 0.00 0.06 0.05 83 1015.5
20260904175515 65 134 1.0 5.0 0.00 0.06 0.05 84 1015.5
20260904174515 64 199 2.0 4.0 0.00 0.06 0.05 86 1015.5
20260904173515 63 214 1.0 3.0 0.00 0.06 0.05 88 1015.5
20260904172535 63 127 1.0 3.0 0.00 0.06 0.05 90 1015.5
20260904171515 63 152 2.0 4.0 0.00 0.06 0.05 90 1015.4
20260904170515 62 160 3.0 4.0 0.00 0.06 0.05 91 1015.4
20260904165515 62 147 1.0 2.0 0.00 0.06 0.05 91 1015.5
20260904164515 62 129 2.0 3.0 0.00 0.06 0.05 91 1015.4
20260904163515 62 107 1.0 3.0 0.00 0.06 0.05 91 1015.3
20260904162516 62 162 2.0 4.0 0.00 0.06 0.05 92 1015.1
20260904161518 62 137 2.0 4.0 0.00 0.06 0.05 92 1015.0
20260904160517 62 94 1.0 3.0 0.00 0.06 0.05 92 1014.8
20260904155516 62 84 1.0 2.0 0.00 0.06 0.05 93 1014.8
20260904154517 61 93 1.0 2.0 0.00 0.06 0.05 93 1014.8
20260904153517 61 81 0.0 2.0 0.00 0.06 0.05 93 1014.7
20260904152517 60 90 1.0 2.0 0.00 0.06 0.05 93 1014.7
20260904151515 59 0.0 0.0 0.00 0.06 0.05 93 1014.7
20260904150517 58 0.0 1.0 0.00 0.06 0.05 93 1014.7
20260904145517 58 33 0.0 2.0 0.00 0.06 0.05 93 1014.6
20260904144516 57 36 0.0 2.0 0.01 0.06 0.05 93 1014.4
20260904143517 57 64 0.0 1.0 0.01 0.06 0.05 93 1014.2
20260904142517 57 316 1.0 1.0 0.01 0.06 0.05 92 1014.1
20260904141517 57 306 1.0 3.0 0.01 0.06 0.05 92 1013.9
20260904140516 57 287 1.0 3.0 0.01 0.06 0.05 92 1013.7
20260904135537 57 318 1.0 2.0 0.01 0.06 0.05 92 1013.6
20260904134537 57 79 0.0 1.0 0.00 0.05 0.04 92 1013.6
20260904133537 57 14 1.0 2.0 0.00 0.05 0.04 92 1013.5
20260904132516 57 26 1.0 2.0 0.00 0.05 0.04 92 1013.5
20260904131517 57 7 1.0 3.0 0.00 0.05 0.04 92 1013.6
20260904130537 58 315 1.0 1.0 0.00 0.05 0.04 92 1013.5
20260904125517 58 317 2.0 2.0 0.00 0.05 0.04 92 1013.5
20260904124516 58 325 1.0 3.0 0.00 0.05 0.04 92 1013.4
20260904123517 58 301 2.0 3.0 0.00 0.05 0.04 92 1013.3
20260904122537 58 331 1.0 3.0 0.00 0.05 0.04 92 1013.3
20260904121517 58 327 0.0 1.0 0.00 0.05 0.04 92 1013.2
20260904120516 58 0.0 0.0 0.00 0.05 0.04 92 1013.2
20260904115517 58 0.0 0.0 0.00 0.05 0.04 92 1013.2
20260904114517 59 27 1.0 3.0 0.00 0.05 0.04 92 1013.1
20260904113517 59 308 2.0 4.0 0.00 0.05 0.04 92 1013.1
20260904112516 59 308 3.0 6.0 0.00 0.05 0.04 92 1013.1
20260904111517 59 316 3.0 5.0 0.00 0.05 0.04 92 1013.1
20260904110517 59 313 1.0 3.0 0.00 0.05 0.04 92 1013.1
20260904105517 60 330 1.0 3.0 0.00 0.05 0.04 92 1013.1
20260904104516 60 305 3.0 5.0 0.00 0.05 0.04 92 1013.1
20260904103517 60 313 0.0 2.0 0.00 0.05 0.04 93 1013.0
20260904102517 61 307 1.0 2.0 0.00 0.05 0.04 92 1013.0
20260904101517 61 327 0.0 1.0 0.00 0.05 0.04 93 1013.0
20260904100517 62 0.0 0.0 0.00 0.05 0.04 93 1012.9
20260904095517 62 325 0.0 2.0 0.00 0.05 0.04 93 1012.8
20260904094537 62 291 1.0 2.0 0.00 0.05 0.04 93 1012.7
20260904093517 62 266 1.0 1.0 0.00 0.05 0.04 93 1012.7
20260904092517 62 296 0.0 1.0 0.00 0.05 0.04 93 1012.7
20260904091515 62 0.0 0.0 0.00 0.05 0.04 93 1012.7
20260904090517 62 17 1.0 2.0 0.00 0.05 0.04 93 1012.6
20260904085517 62 17 1.0 2.0 0.00 0.05 0.04 93 1012.8
20260904084517 62 17 1.0 1.0 0.01 0.05 0.04 93 1012.7
20260904083515 62 17 1.0 2.0 0.02 0.05 0.04 93 1012.8
20260904082517 62 261 0.0 1.0 0.02 0.05 0.04 93 1012.9
20260904081517 62 212 1.0 2.0 0.03 0.05 0.04 92 1013.0
20260904080536 62 214 2.0 3.0 0.03 0.05 0.04 93 1013.1
20260904075517 62 199 1.0 3.0 0.04 0.05 0.04 93 1013.0
20260904074517 62 201 1.0 2.0 0.04 0.04 0.03 92 1013.0
20260904073517 62 133 1.0 2.0 0.03 0.03 0.02 92 1012.9
20260904072516 62 0.0 0.0 0.03 0.03 0.02 92 1012.9
20260904071517 62 194 2.0 3.0 0.02 0.02 0.01 92 1012.9
20260904070517 63 165 1.0 2.0 0.02 0.02 0.01 92 1012.9
20260904065517 63 137 0.0 1.0 0.01 0.01 0.01 92 1012.9
20260904064516 63 216 1.0 2.0 0.00 0.00 0.00 92 1013.0
20260904063517 63 227 0.0 2.0 0.00 0.00 0.00 92 1012.9
20260904062537 63 205 1.0 3.0 0.00 0.00 0.00 92 1013.0
20260904061517 63 152 1.0 2.0 0.00 0.00 0.00 92 1013.0
20260904060516 63 197 3.0 5.0 0.00 0.00 0.00 91 1013.1
20260904055517 63 217 2.0 3.0 0.00 0.00 0.00 91 1013.1
20260904054516 63 197 2.0 3.0 0.00 0.00 0.00 91 1013.1
20260904053516 63 165 0.0 3.0 0.00 0.00 0.00 91 1013.3
20260904052557 63 198 0.0 2.0 0.00 0.00 0.00 91 1013.4
20260904051517 63 214 2.0 3.0 0.00 0.00 0.00 91 1013.6
20260904050517 63 202 1.0 2.0 0.00 0.00 0.00 90 1013.5
20260904045515 63 197 2.0 4.0 0.00 0.00 0.00 90 1013.6
20260904044556 63 179 1.0 3.0 0.00 0.00 0.00 90 1013.6
20260904043537 63 207 3.0 5.0 0.00 0.00 0.00 90 1013.6
20260904042516 64 152 2.0 6.0 0.00 0.00 0.00 89 1013.5
20260904041516 64 149 2.0 4.0 0.00 0.00 0.00 89 1013.5
20260904040516 64 151 2.0 3.0 0.00 0.00 0.00 89 1013.5
20260904035537 64 123 2.0 3.0 0.00 0.00 0.00 89 1013.4
20260904034536 64 179 1.0 5.0 0.00 0.00 0.00 88 1013.3
20260904033516 64 223 2.0 4.0 0.00 0.00 0.00 88 1013.3
20260904032516 64 0.0 0.0 0.00 0.00 0.00 87 1013.2
20260904031515 64 0.0 0.0 0.00 0.00 0.00 87 1013.2
20260904030516 65 235 1.0 4.0 0.00 0.00 0.00 86 1013.1
20260904025516 65 0.0 1.0 0.00 0.00 0.00 86 1013.1
20260904024516 65 202 2.0 4.0 0.00 0.00 0.00 84 1013.2
20260904023537 66 212 3.0 6.0 0.00 0.00 0.00 83 1013.1
20260904022517 66 206 2.0 4.0 0.00 0.00 0.00 81 1013.2
20260904021516 67 215 5.0 9.0 0.00 0.00 0.00 79 1013.1
20260904020516 68 211 6.0 9.0 0.00 0.00 0.00 76 1013.2
20260904015516 69 238 3.0 5.0 0.00 0.00 0.00 74 1013.2
20260904014516 69 209 4.0 7.0 0.00 0.00 0.00 73 1013.2
20260904013516 69 201 5.0 7.0 0.00 0.00 0.00 71 1013.4
20260904012516 70 223 5.0 9.0 0.00 0.00 0.00 70 1013.3
20260904011517 70 191 5.0 10.0 0.00 0.00 0.00 69 1013.2
20260904010516 70 214 8.0 14.0 0.00 0.00 0.00 68 1013.4
20260904005516 70 231 7.0 12.0 0.00 0.00 0.00 68 1013.4
20260904004517 70 217 6.0 12.0 0.00 0.00 0.00 67 1013.3
20260904003517 71 200 8.0 15.0 0.00 0.00 0.00 66 1013.3
20260904002536 71 221 7.0 10.0 0.00 0.00 0.00 66 1013.4
20260904001516 71 235 5.0 9.0 0.00 0.00 0.00 67 1013.3
20260904000517 72 240 8.0 13.0 0.00 0.00 0.00 65 1013.4
20260903235537 71 241 5.0 7.0 0.00 0.00 0.00 67 1013.3
20260903234516 71 226 5.0 12.0 0.00 0.00 0.00 67 1013.4
20260903233516 72 223 9.0 13.0 0.00 0.00 0.00 66 1013.5
20260903232516 72 198 5.0 10.0 0.00 0.00 0.00 65 1013.5
20260903231516 72 193 6.0 13.0 0.00 0.00 0.00 66 1013.6